Salem, IL

7:54 PM CDT on June 27, 2017 (GMT -0500)
Salem-Leckrone

Weather History for KSLO - June, 2013

Change the Weather History Date:

Friday, June 14, 2013

  Actual Average Record
Temperature  
Mean Temperature 71 °F -  
Max Temperature 82 °F 86 °F 99 °F (1987)
Min Temperature 60 °F 63 °F 46 °F (1959)
Cooling Degree Days 6    
Growing Degree Days 21 (Base 50)    
Moisture  
Dew Point 59 °F    
Average Humidity 64    
Maximum Humidity 95    
Minimum Humidity 41    
Precipitation  
Precipitation 0.00 in - - ()
Sea Level Pressure  
Sea Level Pressure 30.05 in    
Wind  
Wind Speed 2 mph (NNE)    
Max Wind Speed 12 mph    
Max Gust Speed -    
Visibility 10 miles    
Events      
Averages and records for this station are not official NWS values.
T = Trace of Precipitation, MM = Missing Value Source: NWS Daily Summary

Daily Weather History Graph

Daily Weather History Graph

Search for Another Location

Airport or City:

Trip Planner

Search our weather history database for the weather conditions in past years. The results will help you decide how hot, cold, wet, or windy it might be!

Date:

Astronomy

Jun. 14, 2013 Rise Set
Actual Time 5:30 AM CDT 8:21 PM CDT
Civil Twilight 4:58 AM CDT 8:53 PM CDT
Nautical Twilight 4:18 AM CDT 9:33 PM CDT
Astronomical Twilight 3:33 AM CDT 10:19 PM CDT
Moon 11:02 AM CDT (6/14) No Moon Set
Length of Visible Light 15h 54m
Length of Day
14h 51m
Waxing Crescent, 30% of the Moon is Illuminated
Jun 14
Waxing Crescent
Jun 16
First Quarter
Jun 23
Full
Jun 29
Last Quarter
Jul 8
New

Hourly Weather History & Observations

Time (CDT) Temp. Heat Index Dew Point Humidity Pressure Visibility Wind Dir Wind Speed Gust Speed Precip Events Conditions
12:15 AM 67.6 °F - 59.2 °F 74% 29.98 in 10.0 mi Calm Calm - N/A   Clear
12:35 AM 65.8 °F - 60.1 °F 82% 29.99 in 10.0 mi Calm Calm - N/A   Clear
12:55 AM 64.4 °F - 60.6 °F 88% 29.99 in 10.0 mi Calm Calm - N/A   Clear
1:15 AM 65.8 °F - 58.6 °F 78% 29.99 in 10.0 mi Calm Calm - N/A   Clear
1:35 AM 67.1 °F - 57.6 °F 71% 29.98 in 10.0 mi Calm Calm - N/A   Clear
1:55 AM 66.9 °F - 57.2 °F 71% 30.00 in 10.0 mi Calm Calm - N/A   Clear
2:15 AM 67.1 °F - 57.2 °F 70% 30.01 in 10.0 mi Calm Calm - N/A   Clear
2:35 AM 66.2 °F - 56.8 °F 72% 30.03 in 10.0 mi ENE 5.8 mph - N/A   Clear
2:55 AM 65.8 °F - 57.2 °F 74% 30.03 in 10.0 mi NE 4.6 mph - N/A   Clear
3:15 AM 65.5 °F - 57.2 °F 75% 30.05 in 10.0 mi ENE 4.6 mph - N/A   Clear
3:35 AM 65.3 °F - 57.0 °F 75% 30.05 in 10.0 mi ENE 4.6 mph - N/A   Clear
3:55 AM 64.9 °F - 56.8 °F 75% 30.05 in 10.0 mi Calm Calm - N/A   Clear
4:15 AM 63.9 °F - 57.2 °F 79% 30.05 in 10.0 mi Calm Calm - N/A   Clear
4:35 AM 63.7 °F - 57.2 °F 79% 30.05 in 10.0 mi Calm Calm - N/A   Clear
4:55 AM 60.8 °F - 57.4 °F 88% 30.05 in 10.0 mi Calm Calm - N/A   Clear
5:15 AM 60.3 °F - 57.2 °F 90% 30.06 in 10.0 mi Calm Calm - N/A   Clear
5:35 AM 60.1 °F - 57.6 °F 91% 30.07 in 10.0 mi Calm Calm - N/A   Clear
5:55 AM 60.1 °F - 58.5 °F 94% 30.07 in 10.0 mi Calm Calm - N/A   Clear
6:15 AM 60.8 °F - 59.4 °F 95% 30.08 in 10.0 mi Calm Calm - N/A   Clear
6:35 AM 62.4 °F - 59.7 °F 91% 30.08 in 10.0 mi Calm Calm - N/A   Clear
6:55 AM 64.2 °F - 59.5 °F 85% 30.08 in 10.0 mi North 3.5 mph - N/A   Clear
7:15 AM 65.5 °F - 59.5 °F 81% 30.08 in 10.0 mi North 3.5 mph - N/A   Clear
7:35 AM 67.1 °F - 58.6 °F 74% 30.08 in 10.0 mi NNE 3.5 mph - N/A   Clear
7:55 AM 68.2 °F - 57.0 °F 67% 30.10 in 10.0 mi NNE 3.5 mph - N/A   Clear
8:15 AM 68.9 °F - 56.8 °F 65% 30.10 in 10.0 mi NNE 4.6 mph - N/A   Clear
8:35 AM 70.2 °F - 57.2 °F 63% 30.11 in 10.0 mi NNE 4.6 mph - N/A   Clear
8:55 AM 70.7 °F - 57.0 °F 62% 30.11 in 10.0 mi North 4.6 mph - N/A   Clear
9:15 AM 71.1 °F - 56.8 °F 61% 30.11 in 10.0 mi NNE 4.6 mph - N/A   Clear
9:35 AM 72.5 °F - 57.4 °F 59% 30.11 in 10.0 mi North 4.6 mph - N/A   Clear
9:55 AM 73.9 °F - 56.8 °F 55% 30.11 in 10.0 mi NE 4.6 mph - N/A   Clear
10:15 AM 74.8 °F - 56.8 °F 53% 30.11 in 10.0 mi North 4.6 mph - N/A   Clear
10:35 AM 75.6 °F - 55.6 °F 50% 30.10 in 10.0 mi NE 5.8 mph - N/A   Clear
10:55 AM 76.1 °F - 56.1 °F 50% 30.10 in 10.0 mi North 5.8 mph - N/A   Clear
11:15 AM 76.8 °F - 55.9 °F 48% 30.09 in 10.0 mi Calm Calm - N/A   Clear
11:35 AM 77.5 °F - 57.4 °F 50% 30.09 in 10.0 mi North 8.1 mph - N/A   Clear
11:55 AM 78.3 °F - 57.7 °F 49% 30.08 in 10.0 mi NNE 5.8 mph - N/A   Clear
12:15 PM 78.8 °F - 58.5 °F 50% 30.08 in 10.0 mi NNW 4.6 mph - N/A   Clear
12:35 PM 79.0 °F - 58.6 °F 50% 30.08 in 10.0 mi NNE 3.5 mph - N/A   Clear
12:55 PM 79.7 °F - 58.3 °F 48% 30.08 in 10.0 mi Calm Calm - N/A   Clear
1:15 PM 80.4 °F 81.0 °F 58.8 °F 48% 30.08 in 10.0 mi North 3.5 mph - N/A   Clear
1:35 PM 81.0 °F 81.3 °F 59.2 °F 47% 30.08 in 10.0 mi North 8.1 mph - N/A   Clear
1:55 PM 81.0 °F 81.3 °F 59.0 °F 47% 30.07 in 10.0 mi NNE 8.1 mph - N/A   Clear
2:15 PM 81.0 °F 81.2 °F 58.3 °F 46% 30.06 in 10.0 mi North 10.4 mph - N/A   Clear
2:35 PM 81.0 °F 81.1 °F 57.9 °F 45% 30.07 in 10.0 mi North 10.4 mph - N/A   Clear
2:55 PM 80.8 °F 81.1 °F 58.3 °F 46% 30.08 in 10.0 mi NNW 9.2 mph - N/A   Clear
3:15 PM 81.5 °F 81.4 °F 57.0 °F 43% 30.08 in 10.0 mi North 11.5 mph - N/A   Clear
3:35 PM 81.7 °F 81.6 °F 57.9 °F 44% 30.08 in 10.0 mi North 9.2 mph - N/A   Clear
3:55 PM 82.0 °F 81.8 °F 57.4 °F 43% 30.08 in 10.0 mi North 9.2 mph - N/A   Clear
4:15 PM 81.1 °F 81.3 °F 57.7 °F 45% 30.07 in 10.0 mi NNW 5.8 mph - N/A   Clear
4:35 PM 81.0 °F 81.2 °F 58.5 °F 46% 30.06 in 10.0 mi NNE 4.6 mph - N/A   Clear
4:55 PM 81.5 °F 81.5 °F 57.7 °F 44% 30.05 in 10.0 mi North 6.9 mph - N/A   Clear
5:15 PM 81.7 °F 81.5 °F 57.0 °F 43% 30.04 in 10.0 mi NE 4.6 mph - N/A   Clear
5:35 PM 81.9 °F 81.4 °F 56.3 °F 41% 30.03 in 10.0 mi NE 3.5 mph - N/A   Clear
5:55 PM 81.7 °F 81.4 °F 56.5 °F 42% 30.01 in 10.0 mi Calm Calm - N/A   Clear
6:15 PM 81.5 °F 81.5 °F 57.6 °F 44% 29.97 in 10.0 mi East 8.1 mph - N/A   Clear
6:35 PM 80.1 °F 80.6 °F 58.1 °F 47% 29.96 in 10.0 mi ESE 5.8 mph - N/A   Clear
6:55 PM 78.8 °F - 55.8 °F 45% 29.97 in 10.0 mi ESE 6.9 mph - N/A   Clear
7:15 PM 79.3 °F - 55.6 °F 44% 30.01 in 10.0 mi Calm Calm - N/A   Clear
7:35 PM 77.4 °F - 61.2 °F 57% 30.01 in 10.0 mi Calm Calm - N/A   Clear
7:55 PM 75.4 °F - 61.0 °F 61% 30.02 in 10.0 mi Calm Calm - N/A   Clear
8:15 PM 73.4 °F - 63.3 °F 71% 30.03 in 10.0 mi Calm Calm - N/A   Clear
8:35 PM 71.4 °F - 61.9 °F 72% 30.03 in 10.0 mi Calm Calm - N/A   Clear
8:55 PM 70.0 °F - 62.2 °F 76% 30.02 in 10.0 mi Calm Calm - N/A   Clear
9:15 PM 73.2 °F - 61.0 °F 65% 30.01 in 10.0 mi Calm Calm - N/A   Clear
9:35 PM 71.6 °F - 61.7 °F 71% 30.03 in 10.0 mi SW 3.5 mph - N/A   Clear
9:55 PM 70.2 °F - 61.7 °F 74% 30.04 in 10.0 mi Calm Calm - N/A   Clear
10:15 PM 68.9 °F - 62.4 °F 80% 30.05 in 10.0 mi Calm Calm - N/A   Clear
10:35 PM 67.5 °F - 61.7 °F 82% 30.05 in 10.0 mi Calm Calm - N/A   Clear
10:55 PM 66.9 °F - 61.5 °F 83% 30.05 in 10.0 mi Calm Calm - N/A   Clear
11:15 PM 65.8 °F - 61.7 °F 86% 30.05 in 10.0 mi Calm Calm - N/A   Clear
11:35 PM 65.7 °F - 62.6 °F 90% 30.05 in 10.0 mi Calm Calm - N/A   Clear
11:55 PM 65.7 °F - 62.6 °F 90% 30.05 in 10.0 mi Calm Calm - N/A   Clear